Location: Normandy Village
(37.8755°N, 122.2655°W)
Time: 14:22:17
(UTC+00:00)

Centaur AC-119 - Pass Details

Date: 22 September 2019
Orbit: 238 x 14345 km, 26.8° (Epoch: 14 October)

Event Time Altitude Azimuth Distance (km) Brightness Sun altitude
Exits shadow 12:46:55 15° 215° (SW) 1,651 4.3 -14.5°
Maximum altitude 12:49:29 25° 167° (SSE) 1,759 4.9 -14.0°
Drops below altitude 10° 12:57:37 10° 118° (ESE) 4,799 7.9 -12.4°
Sets 13:06:13 0° 110° (ESE) 8,066 9.4 -10.8°
